Year,Month,Day,Hour,Minute,Value (Times are PST for temperature in C)
2012,10,18,00,00,9.40
2012,10,18,00,01,9.50
2012,10,18,00,02,9.40
2012,10,18,00,03,9.50
2012,10,18,00,04,9.50
2012,10,18,00,05,9.40
2012,10,18,00,06,9.40
2012,10,18,00,07,9.50
2012,10,18,00,08,9.40
2012,10,18,00,09,9.50
2012,10,18,00,10,9.40
2012,10,18,00,11,9.40
2012,10,18,00,12,9.40
2012,10,18,00,13,9.40
2012,10,18,00,14,9.40
2012,10,18,00,15,9.40
2012,10,18,00,16,9.40
2012,10,18,00,17,9.40
2012,10,18,00,18,9.40
2012,10,18,00,19,9.40
2012,10,18,00,20,9.40
2012,10,18,00,21,9.40
2012,10,18,00,22,9.40
2012,10,18,00,23,9.40
2012,10,18,00,24,9.40
2012,10,18,00,25,9.40
2012,10,18,00,26,9.40
2012,10,18,00,27,9.30
2012,10,18,00,28,9.30
2012,10,18,00,29,9.30
2012,10,18,00,30,9.30
2012,10,18,00,31,9.30
2012,10,18,00,32,9.30
2012,10,18,00,33,9.30
2012,10,18,00,34,9.30
2012,10,18,00,35,9.30
2012,10,18,00,36,9.30
2012,10,18,00,37,9.30
2012,10,18,00,38,9.30
2012,10,18,00,39,9.30
2012,10,18,00,40,9.30
2012,10,18,00,41,9.30
2012,10,18,00,42,9.30
2012,10,18,00,43,9.30
2012,10,18,00,44,9.30
2012,10,18,00,45,9.30
2012,10,18,00,46,9.30
2012,10,18,00,47,9.30
2012,10,18,00,48,9.30
2012,10,18,00,49,9.30
2012,10,18,00,50,9.30
2012,10,18,00,51,9.30
2012,10,18,00,52,9.30
2012,10,18,00,53,9.30
2012,10,18,00,54,9.30
2012,10,18,00,55,9.30
2012,10,18,00,56,9.20
2012,10,18,00,57,9.20
2012,10,18,00,58,9.20
2012,10,18,00,59,9.20
2012,10,18,01,00,9.20
2012,10,18,01,01,9.20
2012,10,18,01,02,9.20
2012,10,18,01,03,9.20
2012,10,18,01,04,9.20
2012,10,18,01,05,9.10
2012,10,18,01,06,9.10
2012,10,18,01,07,9.10
2012,10,18,01,08,9.10
2012,10,18,01,09,9.10
2012,10,18,01,10,9.10
2012,10,18,01,11,9.10
2012,10,18,01,12,9.10
2012,10,18,01,13,9.10
2012,10,18,01,14,9.00
2012,10,18,01,15,9.00
2012,10,18,01,16,9.00
2012,10,18,01,17,9.00
2012,10,18,01,18,9.00
2012,10,18,01,19,9.00
2012,10,18,01,20,8.90
2012,10,18,01,21,8.90
2012,10,18,01,22,8.90
2012,10,18,01,23,8.90
2012,10,18,01,24,8.90
2012,10,18,01,25,8.90
2012,10,18,01,26,8.90
2012,10,18,01,27,8.90
2012,10,18,01,28,8.90
2012,10,18,01,29,8.90
2012,10,18,01,30,8.90
2012,10,18,01,31,8.90
2012,10,18,01,32,8.90
2012,10,18,01,33,8.90
2012,10,18,01,34,8.90
2012,10,18,01,35,8.90
2012,10,18,01,36,8.90
2012,10,18,01,37,8.90
2012,10,18,01,38,8.90
2012,10,18,01,39,8.90
2012,10,18,01,40,8.90
2012,10,18,01,41,8.80
2012,10,18,01,42,8.80
2012,10,18,01,43,8.80
2012,10,18,01,44,8.80
2012,10,18,01,45,8.80
2012,10,18,01,46,8.80
2012,10,18,01,47,8.80
2012,10,18,01,48,8.80
2012,10,18,01,49,8.80
2012,10,18,01,50,8.80
2012,10,18,01,51,8.80
2012,10,18,01,52,8.70
2012,10,18,01,53,8.70
2012,10,18,01,54,8.70
2012,10,18,01,55,8.70
2012,10,18,01,56,8.70
2012,10,18,01,57,8.70
2012,10,18,01,58,8.70
2012,10,18,01,59,8.70
2012,10,18,02,00,8.70
2012,10,18,02,01,8.70
2012,10,18,02,02,8.70
2012,10,18,02,03,8.70
2012,10,18,02,04,8.70
2012,10,18,02,05,8.70
2012,10,18,02,06,8.70
2012,10,18,02,07,8.70
2012,10,18,02,08,8.70
2012,10,18,02,09,8.70
2012,10,18,02,10,8.70
2012,10,18,02,11,8.70
2012,10,18,02,12,8.70
2012,10,18,02,13,8.70
2012,10,18,02,14,8.80
2012,10,18,02,15,8.80
2012,10,18,02,16,8.80
2012,10,18,02,17,8.80
2012,10,18,02,18,8.80
2012,10,18,02,19,8.80
2012,10,18,02,20,8.80
2012,10,18,02,21,8.80
2012,10,18,02,22,8.80
2012,10,18,02,23,8.80
2012,10,18,02,24,8.80
2012,10,18,02,25,8.80
2012,10,18,02,26,8.80
2012,10,18,02,27,8.80
2012,10,18,02,28,8.80
2012,10,18,02,29,8.80
2012,10,18,02,30,8.80
2012,10,18,02,31,8.80
2012,10,18,02,32,8.80
2012,10,18,02,33,8.80
2012,10,18,02,34,8.80
2012,10,18,02,35,8.80
2012,10,18,02,36,8.80
2012,10,18,02,37,8.80
2012,10,18,02,38,8.80
2012,10,18,02,39,8.80
2012,10,18,02,40,8.80
2012,10,18,02,41,8.80
2012,10,18,02,42,8.80
2012,10,18,02,43,8.80
2012,10,18,02,44,8.80
2012,10,18,02,45,8.80
2012,10,18,02,46,8.80
2012,10,18,02,47,8.80
2012,10,18,02,48,8.80
2012,10,18,02,49,8.80
2012,10,18,02,50,8.80
2012,10,18,02,51,8.80
2012,10,18,02,52,8.80
2012,10,18,02,53,8.80
2012,10,18,02,54,8.80
2012,10,18,02,55,8.80
2012,10,18,02,56,8.80
2012,10,18,02,57,8.80
2012,10,18,02,58,8.80
2012,10,18,02,59,8.80
2012,10,18,03,00,8.80
2012,10,18,03,01,8.80
2012,10,18,03,02,8.80
2012,10,18,03,03,8.80
2012,10,18,03,04,8.80
2012,10,18,03,05,8.80
2012,10,18,03,06,8.80
2012,10,18,03,07,8.80
2012,10,18,03,08,8.80
2012,10,18,03,09,8.80
2012,10,18,03,10,8.80
2012,10,18,03,11,8.80
2012,10,18,03,12,8.80
2012,10,18,03,13,8.80
2012,10,18,03,14,8.80
2012,10,18,03,15,8.80
2012,10,18,03,16,8.90
2012,10,18,03,17,8.80
2012,10,18,03,18,8.80
2012,10,18,03,19,8.90
2012,10,18,03,20,8.90
2012,10,18,03,21,8.90
2012,10,18,03,22,8.90
2012,10,18,03,23,8.90
2012,10,18,03,24,8.80
2012,10,18,03,25,8.80
2012,10,18,03,26,8.80
2012,10,18,03,27,8.80
2012,10,18,03,28,8.80
2012,10,18,03,29,8.80
2012,10,18,03,30,8.80
2012,10,18,03,31,8.80
2012,10,18,03,32,8.80
2012,10,18,03,33,8.80
2012,10,18,03,34,8.80
2012,10,18,03,35,8.80
2012,10,18,03,36,8.70
2012,10,18,03,37,8.70
2012,10,18,03,38,8.70
2012,10,18,03,39,8.70
2012,10,18,03,40,8.70
2012,10,18,03,41,8.70
2012,10,18,03,42,8.70
2012,10,18,03,43,8.70
2012,10,18,03,44,8.70
2012,10,18,03,45,8.60
2012,10,18,03,46,8.60
2012,10,18,03,47,8.60
2012,10,18,03,48,8.60
2012,10,18,03,49,8.60
2012,10,18,03,50,8.60
2012,10,18,03,51,8.60
2012,10,18,03,52,8.50
2012,10,18,03,53,8.50
2012,10,18,03,54,8.50
2012,10,18,03,55,8.50
2012,10,18,03,56,8.50
2012,10,18,03,57,8.50
2012,10,18,03,58,8.50
2012,10,18,03,59,8.50
2012,10,18,04,00,8.40
2012,10,18,04,01,8.40
2012,10,18,04,02,8.40
2012,10,18,04,03,8.40
2012,10,18,04,04,8.40
2012,10,18,04,05,8.40
2012,10,18,04,06,8.40
2012,10,18,04,07,8.40
2012,10,18,04,08,8.40
2012,10,18,04,09,8.40
2012,10,18,04,10,8.40
2012,10,18,04,11,8.40
2012,10,18,04,12,8.40
2012,10,18,04,13,8.40
2012,10,18,04,14,8.40
2012,10,18,04,15,8.40
2012,10,18,04,16,8.40
2012,10,18,04,17,8.40
2012,10,18,04,18,8.40
2012,10,18,04,19,8.40
2012,10,18,04,20,8.40
2012,10,18,04,21,8.40
2012,10,18,04,22,8.40
2012,10,18,04,23,8.40
2012,10,18,04,24,8.40
2012,10,18,04,25,8.30
2012,10,18,04,26,8.40
2012,10,18,04,27,8.40
2012,10,18,04,28,8.40
2012,10,18,04,29,8.40
2012,10,18,04,30,8.40
2012,10,18,04,31,8.40
2012,10,18,04,32,8.30
2012,10,18,04,33,8.40
2012,10,18,04,34,8.30
2012,10,18,04,35,8.30
2012,10,18,04,36,8.30
2012,10,18,04,37,8.30
2012,10,18,04,38,8.30
2012,10,18,04,39,8.30
2012,10,18,04,40,8.30
2012,10,18,04,41,8.30
2012,10,18,04,42,8.30
2012,10,18,04,43,8.30
2012,10,18,04,44,8.30
2012,10,18,04,45,8.40
2012,10,18,04,46,8.40
2012,10,18,04,47,8.40
2012,10,18,04,48,8.40
2012,10,18,04,49,8.40
2012,10,18,04,50,8.40
2012,10,18,04,51,8.40
2012,10,18,04,52,8.40
2012,10,18,04,53,8.40
2012,10,18,04,54,8.40
2012,10,18,04,55,8.50
2012,10,18,04,56,8.50
2012,10,18,04,57,8.50
2012,10,18,04,58,8.50
2012,10,18,04,59,8.50
2012,10,18,05,00,8.50
2012,10,18,05,01,8.50
2012,10,18,05,02,8.50
2012,10,18,05,03,8.60
2012,10,18,05,04,8.60
2012,10,18,05,05,8.60
2012,10,18,05,06,8.60
2012,10,18,05,07,8.60
2012,10,18,05,08,8.60
2012,10,18,05,09,8.60
2012,10,18,05,10,8.60
2012,10,18,05,11,8.50
2012,10,18,05,12,8.60
2012,10,18,05,13,8.60
2012,10,18,05,14,8.60
2012,10,18,05,15,8.60
2012,10,18,05,16,8.60
2012,10,18,05,17,8.60
2012,10,18,05,18,8.60
2012,10,18,05,19,8.60
2012,10,18,05,20,8.60
2012,10,18,05,21,8.60
2012,10,18,05,22,8.60
2012,10,18,05,23,8.60
2012,10,18,05,24,8.60
2012,10,18,05,25,8.60
2012,10,18,05,26,8.60
2012,10,18,05,27,8.50
2012,10,18,05,28,8.50
2012,10,18,05,29,8.50
2012,10,18,05,30,8.50
2012,10,18,05,31,8.50
2012,10,18,05,32,8.50
2012,10,18,05,33,8.50
2012,10,18,05,34,8.50
2012,10,18,05,35,8.50
2012,10,18,05,36,8.40
2012,10,18,05,37,8.40
2012,10,18,05,38,8.40
2012,10,18,05,39,8.40
2012,10,18,05,40,8.40
2012,10,18,05,41,8.40
2012,10,18,05,42,8.40
2012,10,18,05,43,8.40
2012,10,18,05,44,8.40
2012,10,18,05,45,8.30
2012,10,18,05,46,8.30
2012,10,18,05,47,8.30
2012,10,18,05,48,8.30
2012,10,18,05,49,8.30
2012,10,18,05,50,8.30
2012,10,18,05,51,8.30
2012,10,18,05,52,8.30
2012,10,18,05,53,8.30
2012,10,18,05,54,8.30
2012,10,18,05,55,8.30
2012,10,18,05,56,8.20
2012,10,18,05,57,8.20
2012,10,18,05,58,8.20
2012,10,18,05,59,8.20
2012,10,18,06,00,8.20
2012,10,18,06,01,8.20
2012,10,18,06,02,8.20
2012,10,18,06,03,8.20
2012,10,18,06,04,8.20
2012,10,18,06,05,8.30
2012,10,18,06,06,8.30
2012,10,18,06,07,8.30
2012,10,18,06,08,8.30
2012,10,18,06,09,8.30
2012,10,18,06,10,8.30
2012,10,18,06,11,8.30
2012,10,18,06,12,8.30
2012,10,18,06,13,8.30
2012,10,18,06,14,8.30
2012,10,18,06,15,8.30
2012,10,18,06,16,8.40
2012,10,18,06,17,8.40
2012,10,18,06,18,8.40
2012,10,18,06,19,8.40
2012,10,18,06,20,8.40
2012,10,18,06,21,8.40
2012,10,18,06,22,8.40
2012,10,18,06,23,8.40
2012,10,18,06,24,8.40
2012,10,18,06,25,8.40
2012,10,18,06,26,8.50
2012,10,18,06,27,8.50
2012,10,18,06,28,8.50
2012,10,18,06,29,8.50
2012,10,18,06,30,8.50
2012,10,18,06,31,8.50
2012,10,18,06,32,8.50
2012,10,18,06,33,8.50
2012,10,18,06,34,8.60
2012,10,18,06,35,8.60
2012,10,18,06,36,8.50
2012,10,18,06,37,8.60
2012,10,18,06,38,8.60
2012,10,18,06,39,8.60
2012,10,18,06,40,8.60
2012,10,18,06,41,8.60
2012,10,18,06,42,8.60
2012,10,18,06,43,8.60
2012,10,18,06,44,8.60
2012,10,18,06,45,8.60
2012,10,18,06,46,8.60
2012,10,18,06,47,8.60
2012,10,18,06,48,8.60
2012,10,18,06,49,8.60
2012,10,18,06,50,8.60
2012,10,18,06,51,8.60
2012,10,18,06,52,8.60
2012,10,18,06,53,8.60
2012,10,18,06,54,8.50
2012,10,18,06,55,8.50
2012,10,18,06,56,8.50
2012,10,18,06,57,8.50
2012,10,18,06,58,8.50
2012,10,18,06,59,8.50
2012,10,18,07,00,8.50
2012,10,18,07,01,8.50
2012,10,18,07,02,8.50
2012,10,18,07,03,8.50
2012,10,18,07,04,8.50
